カタログに戻る

STARLINK-3853

運用中通信VLEO
NORAD 52359·PAYLOAD·🇺🇸 United States

打ち上げ Apr 29, 2022 から Cape Canaveral Space Force Station

Loading…

次のパス (今後24時間)

TLE

最新Source: CelesTrak SupGP

元期: Sep 15, 2026, 01:52 UTC

1 52359C 22045AE  26258.07826389 -.00030920  00000+0 -99437-3 0  2581
2 52359  53.1603  59.0358 0001224  82.6691 105.6534 15.31715562    16

AllMySatでSTARLINK-3853をリアルタイム追跡

Download on the App Store